Вернуться в каталог

ETS 6

АктивенСвязьHEO
NORAD 23230·PAYLOAD·🇯🇵 Japan

Запущен Aug 28, 1994 с Tanegashima Space Center

Loading…

Ближайшие Пролёты (ближайшие 24 часа)

TLE

СвежийSource: Space-Track

Эпоха: Sep 14, 2026, 13:54 UTC

1 23230U 94056A   26257.57917436 -.00000065  00000-0  00000-0 0  9990
2 23230  12.2646 233.0574 5074525 196.5308 111.9501  1.67089833195735

Отслеживайте ETS 6 в реальном времени с AllMySat

Download on the App Store